User: anonymous   Login
Location: Bismarck
(46.7731°N, 100.8200°W)
Time: 00:56:22
(UTC-05:00)
Language:

Cosmos 2219 Rocket - Orbit

View from above orbital plane
View from above orbital plane
View from above satellite
View from above satellite

Ground track
Ground track

The orbit data is extracted from the following two-line orbital elements,

1 22220U 92076B   16122.82452638 -.00000249  00000-0 -10091-3 0  9993
2 22220  71.0007 205.1289 0013119 190.0049 308.8726 14.16396022212520
Epoch (UTC): 01 May 2016 19:47:19
Eccentricity: 0.0013119
inclination: 71.0007°
perigee height: 828 km
apogee height: 847 km
right ascension of ascending node: 205.1289°
argument of perigee: 190.0049°
revolutions per day: 14.16396022
mean anomaly at epoch: 308.8726°
orbit number at epoch: 21252

The dashed part of the orbit path shows where the satellite is in the earth's shadow,  

DLR